Theta_e
321 320 317 317 316 315 315 316 315 317 317 316 318 317 316 315 316 317 319 322 322 322 321 320 318 316 314 313 311 311 312 312 313 313 313 314 314 316 319 322 324 327 331 332 332 332 333 333 333 333 333 333 333 334 333 334 334 334 334 333 333 333 333 333 333 333 333 333 333 333 334 333 333 332 332 332 333 333 334 335 334 334 333 333 333
320 317 318 316 314 314 314 315 316 316 316 318 317 317 318 314 313 314 315 317 319 320 318 318 318 316 312 312 313 314 314 313 313 314 314 314 315 315 318 319 322 324 327 330 332 332 331 331 332 333 333 333 333 333 333 333 333 333 334 334 333 333 333 334 333 334 333 333 333 334 333 333 333 333 333 332 333 333 334 333 333 333 333 334 334
320 319 319 317 316 315 315 315 314 314 316 318 315 317 316 317 317 317 316 315 316 316 314 315 314 313 312 311 313 313 313 313 313 314 314 315 315 315 315 318 319 322 325 328 331 332 332 331 331 331 332 333 332 332 332 333 333 334 334 334 333 333 333 333 334 334 333 333 333 333 333 333 333 333 333 333 333 334 334 334 334 335 335 335 335
321 320 320 318 317 316 315 315 315 314 315 316 316 316 316 316 314 314 315 313 314 311 310 311 312 313 312 311 312 312 312 313 313 314 314 314 314 315 314 315 318 319 321 325 328 330 331 331 331 331 332 333 333 333 334 333 334 334 334 334 334 334 334 334 334 334 334 334 334 334 334 334 334 334 334 334 334 334 334 333 333 334 336 336 334
321 321 319 319 319 317 316 315 316 316 316 316 316 314 313 313 314 312 312 311 310 313 310 311 311 313 313 313 313 313 313 313 313 313 313 314 314 314 314 314 314 317 319 321 323 326 328 331 331 332 332 332 333 334 333 334 334 334 334 334 334 334 334 334 334 335 335 335 334 334 334 334 334 334 334 335 334 334 334 334 333 335 336 336 335
321 320 319 319 319 318 318 317 316 316 316 316 316 315 315 314 315 311 314 313 313 313 313 313 313 313 313 314 313 314 314 313 313 314 314 314 314 314 314 314 314 314 314 318 319 321 325 328 330 331 332 333 333 334 334 334 334 334 334 334 335 335 335 334 334 335 336 336 334 334 335 335 335 335 335 336 336 336 336 335 335 336 336 336 335
322 321 319 319 319 318 318 318 318 316 315 315 316 315 315 315 314 314 313 311 311 313 313 313 313 314 314 313 314 314 313 313 314 313 313 314 314 314 314 314 314 314 315 315 317 319 322 324 327 330 331 332 333 333 333 334 335 335 334 335 335 336 336 335 335 336 336 337 337 336 335 335 336 336 336 337 337 337 337 337 337 336 336 336 336
322 320 319 319 319 319 319 318 318 317 316 314 315 315 314 314 314 314 313 313 311 312 312 312 312 312 313 313 314 313 313 313 313 313 314 314 314 314 314 314 315 315 314 315 315 316 320 322 325 328 330 330 331 332 333 333 334 334 334 335 335 336 335 335 335 335 336 337 337 337 336 336 337 337 336 336 336 336 337 337 337 337 337 337 337
323 322 321 320 319 319 319 318 317 317 316 315 315 315 314 314 313 313 313 314 312 312 311 311 311 312 312 312 313 312 312 313 313 314 314 314 314 314 314 314 314 314 315 315 315 315 317 319 321 325 327 327 328 330 332 332 333 334 334 335 334 335 334 335 336 336 337 337 337 337 337 336 336 337 337 336 336 337 337 337 338 337 336 336 335
325 324 322 322 320 319 319 318 317 317 317 316 316 315 314 314 314 312 313 312 312 312 312 312 312 312 312 312 313 312 312 313 313 312 313 313 314 315 315 315 315 315 315 316 316 316 316 317 319 321 322 322 323 326 330 331 332 333 334 334 335 335 335 336 336 336 337 337 337 337 337 337 337 337 337 337 337 338 338 338 337 336 335 334 335
323 323 323 323 321 320 319 319 318 317 316 316 316 315 314 313 313 313 310 312 314 313 313 312 312 311 311 312 312 312 313 313 312 313 313 314 315 315 315 315 315 315 315 315 315 315 315 315 315 315 316 318 320 323 326 328 329 331 332 334 334 335 336 336 336 337 337 337 337 337 337 338 338 338 337 337 338 338 337 337 336 335 335 334 334
310 314 319 322 322 321 320 319 318 318 318 317 317 317 316 313 313 313 312 311 310 312 311 310 309 309 310 311 311 312 313 313 313 313 314 315 315 315 315 316 315 315 315 315 315 315 315 315 314 315 315 316 317 320 321 324 324 328 330 332 334 335 335 336 336 337 336 337 337 337 337 337 337 337 337 337 336 337 337 336 335 334 333 333 333
307 309 310 312 315 319 321 320 319 319 318 318 319 318 318 317 316 314 314 312 312 310 309 308 308 311 311 311 313 313 313 313 314 314 314 315 315 315 315 315 315 315 316 314 314 315 315 315 315 315 315 315 316 317 318 321 321 324 328 330 332 334 335 335 336 337 336 336 336 337 337 337 337 337 338 337 337 337 336 335 335 334 332 332 333
304 306 307 308 309 311 312 315 318 320 319 319 319 317 318 317 316 315 314 315 314 311 310 311 307 308 310 312 313 314 314 314 313 314 314 314 314 314 315 315 315 315 315 314 314 314 315 315 314 315 315 315 315 315 316 317 318 321 324 327 331 333 335 335 336 336 336 336 336 336 336 336 337 337 338 337 336 335 335 334 334 333 332 333 333
301 303 304 305 306 307 308 310 310 312 315 318 319 319 319 318 317 317 316 313 314 311 310 314 311 304 307 309 310 309 309 309 307 307 309 311 312 312 312 312 313 314 315 314 314 314 314 314 314 314 315 315 315 316 316 317 318 320 323 325 326 331 333 334 335 336 336 335 335 336 336 336 336 336 337 337 336 335 334 333 333 332 333 333 333
300 300 302 302 303 304 305 306 307 308 309 308 308 308 310 314 317 317 317 316 314 312 314 313 315 313 310 310 309 308 306 308 300 308 309 312 310 309 310 310 311 312 312 312 314 314 314 314 314 315 315 315 316 316 316 316 319 322 324 324 324 328 331 333 334 336 336 335 335 335 335 335 335 335 336 337 335 334 333 333 333 332 332 332 333
298 299 300 300 301 301 303 303 304 304 305 305 304 306 307 308 308 310 314 316 315 315 313 313 314 317 316 309 308 306 307 309 307 312 308 308 307 308 309 310 310 310 310 311 311 312 313 313 314 314 315 315 316 316 316 317 317 317 319 323 326 327 329 331 333 335 335 334 334 335 334 334 334 335 337 337 335 334 333 332 332 332 332 332 333
297 297 298 299 299 300 301 301 301 302 302 302 303 303 304 304 306 308 308 309 312 315 316 314 315 316 317 318 316 311 310 306 309 308 310 313 315 313 313 310 310 309 309 310 310 312 311 312 313 313 314 315 315 315 316 316 316 316 316 317 326 329 331 332 334 335 335 334 334 334 334 333 334 335 336 336 335 333 332 332 332 332 332 332 332
294 295 296 298 298 298 299 300 300 300 301 300 300 301 302 303 304 305 305 307 308 306 309 316 316 316 317 317 316 317 316 313 310 312 309 313 312 310 310 307 308 309 310 311 312 312 312 312 313 313 314 314 315 315 315 316 319 320 323 324 325 328 331 332 334 335 335 335 334 334 333 333 334 335 335 335 334 332 332 331 331 331 331 332 331
293 293 294 295 296 296 297 297 297 298 298 298 299 300 301 301 302 302 304 305 305 304 305 308 308 314 316 315 316 316 317 317 316 312 311 308 311 314 315 314 311 311 312 312 311 312 312 312 312 313 314 314 315 315 316 316 315 317 319 324 327 329 331 332 334 335 335 335 335 334 333 333 333 334 334 333 333 332 331 331 331 331 331 331 331
292 292 293 293 294 295 295 295 295 296 297 296 297 298 299 299 299 299 300 302 304 305 305 303 304 304 303 310 316 316 316 317 316 315 311 309 310 312 313 311 308 311 311 312 312 312 313 314 314 313 313 314 315 315 315 315 316 316 318 322 326 329 330 332 334 335 335 335 335 333 333 332 333 334 334 334 333 332 331 331 331 330 331 331 330
290 290 291 292 293 294 294 293 293 294 295 294 295 295 297 298 298 299 300 301 302 302 300 299 300 300 301 301 302 308 313 315 315 314 314 313 309 311 313 312 311 314 314 314 312 313 313 314 313 313 314 314 314 314 315 315 316 316 316 317 321 326 329 332 334 335 335 335 335 334 333 332 332 333 333 333 332 331 331 331 331 331 331 330 330
288 289 289 290 291 293 292 294 294 294 293 293 293 294 296 296 297 298 299 299 297 297 297 297 297 298 299 300 301 301 300 302 307 313 314 312 311 311 313 314 313 312 316 313 314 315 315 314 314 314 314 314 314 314 315 315 311 312 310 311 316 320 324 330 334 335 335 336 336 335 334 333 333 333 333 333 332 332 331 331 331 331 330 330 330
287 287 288 288 289 289 289 289 291 290 291 292 292 293 295 295 296 296 296 296 296 295 295 295 295 296 296 298 298 299 300 300 301 302 305 310 314 313 313 315 315 315 317 317 315 316 316 315 315 315 316 315 315 315 315 315 315 309 309 311 313 318 324 329 332 335 336 336 336 335 333 333 333 333 333 332 332 332 331 331 331 331 330 330 330
286 286 287 287 288 288 288 287 287 288 289 290 291 292 293 293 294 295 294 293 293 294 293 293 295 294 294 296 296 297 297 300 301 300 301 300 302 306 313 316 313 314 317 315 316 309 314 315 316 316 315 315 315 315 315 315 315 310 306 311 310 312 318 324 329 333 335 336 336 335 334 333 333 333 333 333 332 332 331 331 331 330 330 329 329
286 286 287 287 287 287 288 287 287 287 288 288 289 290 291 291 292 293 293 292 292 293 293 293 294 294 295 294 294 294 295 296 297 298 298 297 297 297 298 303 311 314 317 317 317 315 316 314 315 316 316 315 316 316 315 315 315 307 304 309 312 311 314 320 324 329 333 335 336 335 334 334 334 334 333 333 332 332 331 331 331 330 330 329 329
286 286 287 287 287 287 287 287 287 287 287 287 288 287 288 288 289 291 290 290 290 290 291 291 291 292 292 293 293 294 294 294 296 295 297 297 297 297 298 295 298 304 312 316 316 316 316 318 314 314 315 315 315 315 315 314 311 307 305 309 312 311 312 318 322 326 330 334 335 335 334 334 334 334 333 333 332 332 331 330 330 330 330 330 330
286 286 287 287 286 286 286 286 287 286 286 286 286 286 287 286 287 287 286 288 287 287 288 289 290 291 291 293 292 293 294 294 294 294 295 296 297 297 298 297 294 293 299 305 312 315 318 317 314 315 316 315 316 316 312 312 315 307 304 311 312 311 310 312 317 321 326 330 334 334 334 335 334 334 334 333 332 332 331 330 330 330 330 330 331
286 287 286 286 286 286 286 286 286 286 286 286 286 286 286 286 286 286 285 286 286 286 286 286 286 287 288 290 290 291 292 293 294 294 294 294 294 295 297 297 297 294 293 292 295 304 315 315 315 308 311 315 315 315 315 314 311 310 312 311 312 312 311 311 314 318 321 324 329 334 335 334 334 334 334 334 334 333 331 331 331 331 331 331 331
286 286 285 285 285 286 285 285 285 285 285 285 285 285 285 285 285 285 286 286 285 285 286 286 286 286 286 286 286 286 288 289 290 292 293 294 294 294 295 297 298 294 292 290 291 297 304 311 314 312 308 311 313 313 313 314 308 309 312 312 312 313 309 309 311 313 316 320 324 328 333 334 334 333 334 335 335 334 333 332 332 332 332 332 331
285 284 284 284 284 284 284 284 284 284 284 284 285 285 285 284 285 285 285 285 284 284 285 285 286 285 285 285 285 285 286 286 287 288 290 291 293 294 295 296 295 294 292 292 289 293 297 297 305 314 314 311 311 312 312 312 311 311 312 312 313 307 306 308 307 310 314 318 320 323 327 332 334 334 334 335 335 335 334 333 333 333 332 331 331
283 284 283 283 283 283 283 284 284 284 284 284 284 284 284 284 284 284 284 284 284 283 284 285 285 285 284 284 284 284 285 286 286 286 286 287 289 292 293 293 293 293 293 292 291 290 295 296 300 303 312 317 314 311 312 312 311 305 312 313 313 304 308 311 306 305 309 312 314 316 319 322 329 333 334 334 335 335 335 334 334 332 332 331 329
282 282 282 282 282 283 282 283 283 283 283 283 284 283 283 283 283 284 284 283 283 283 284 283 284 284 284 283 284 284 285 285 285 285 285 286 286 287 289 289 288 290 291 291 289 290 294 299 298 299 302 305 312 313 313 313 312 311 309 312 312 312 312 312 313 306 305 307 311 314 315 316 319 326 331 332 333 334 334 334 333 332 329 325 323
281 281 281 281 282 282 281 282 282 282 282 282 283 283 282 282 282 284 284 283 282 282 283 282 283 284 283 283 283 283 284 284 284 284 285 285 285 285 285 286 285 287 291 291 290 291 290 294 295 297 298 302 302 312 315 315 314 310 310 311 311 312 313 313 313 314 306 306 308 311 313 313 314 315 318 320 326 328 329 328 324 323 322 320 319
280 281 281 281 281 281 280 281 281 281 281 281 282 282 282 282 282 282 283 282 282 282 282 282 282 283 282 282 282 283 284 283 283 283 284 284 285 285 284 285 285 286 288 291 291 289 290 290 294 294 295 297 299 303 310 316 317 316 314 313 312 312 311 313 313 314 308 306 307 308 310 312 312 313 314 315 316 317 318 320 319 318 318 317 317
280 280 280 280 280 280 280 280 280 280 280 281 281 281 281 281 281 281 281 281 282 282 282 282 282 282 282 281 282 282 283 282 282 283 283 284 284 284 284 284 285 285 287 289 291 290 290 289 291 292 294 296 297 302 306 312 315 315 315 316 314 312 312 311 312 313 310 307 307 307 308 309 310 312 313 313 314 314 314 315 315 314 315 315 314
279 279 280 280 279 279 280 279 279 279 280 280 280 280 281 281 281 281 281 281 281 281 282 282 283 282 281 281 282 282 282 282 282 282 283 283 283 284 283 284 284 285 286 287 288 289 288 288 289 292 293 295 297 299 303 306 311 314 312 312 314 314 312 312 311 311 307 306 305 305 305 306 308 310 311 312 312 312 312 312 312 311 311 311 311
278 279 279 279 280 279 278 279 279 279 279 279 279 279 280 280 280 280 280 280 281 281 281 282 282 282 281 281 282 282 282 281 281 282 282 282 283 283 283 283 284 285 285 285 286 286 287 288 288 288 291 291 292 294 298 302 305 308 310 310 308 308 309 309 310 310 310 311 310 308 304 305 305 307 309 310 311 311 310 310 309 308 308 309 309
277 278 278 278 279 278 279 279 279 279 279 279 279 279 279 279 279 280 280 280 280 280 281 281 281 281 281 281 281 282 281 282 281 281 282 282 283 282 283 283 284 284 284 284 284 285 286 286 287 288 289 291 292 291 294 299 302 306 308 311 311 309 307 309 309 310 310 311 307 304 305 305 305 307 308 309 309 309 309 308 307 305 305 306 307
277 277 278 278 278 278 279 278 279 279 279 278 279 279 279 279 280 280 280 280 280 280 280 280 280 281 281 281 281 282 282 282 282 282 282 282 282 282 282 283 283 283 283 283 283 284 284 285 285 286 287 288 289 291 294 297 298 301 307 309 308 311 310 307 309 311 310 309 309 308 304 303 303 304 305 307 307 308 307 306 304 303 303 305 306
278 278 278 278 277 277 277 278 278 278 279 279 279 279 279 280 280 280 280 280 280 279 279 279 279 280 280 280 281 281 283 284 284 284 285 285 283 281 282 283 282 282 282 282 283 283 283 284 284 286 286 286 287 289 290 291 293 295 298 301 302 307 310 308 308 309 310 307 308 309 308 309 308 309 310 311 311 308 307 306 305 302 303 305 306
277 277 277 277 277 277 277 277 277 278 279 279 282 283 284 282 281 281 281 280 279 279 279 278 278 279 279 279 281 283 283 283 283 284 284 284 285 284 282 282 282 282 282 282 282 282 283 282 283 284 283 284 285 287 288 290 292 295 295 297 298 303 306 308 310 308 308 308 306 305 308 309 309 310 310 310 312 307 311 309 311 306 304 305 305
277 277 277 277 277 277 277 277 277 278 279 280 282 284 284 285 283 281 280 280 280 279 279 278 278 278 278 279 279 280 281 281 281 283 283 283 284 284 284 285 285 283 281 281 281 282 282 282 283 284 284 284 285 287 288 289 291 292 295 298 299 300 301 303 305 303 301 308 306 306 307 306 308 308 308 309 311 309 311 310 306 303 304 304 305
277 277 277 277 277 277 278 278 278 278 279 282 283 284 284 284 284 282 280 280 280 279 279 278 278 278 277 278 278 279 279 279 280 280 281 282 282 283 283 283 284 285 285 283 282 282 282 282 282 284 284 284 285 286 286 288 290 293 295 294 294 295 297 299 303 306 303 306 306 306 307 306 306 308 308 308 310 310 310 307 304 304 304 304 304
277 277 277 277 277 278 278 277 278 278 278 281 283 283 283 284 284 283 280 280 279 279 278 278 278 277 277 277 277 278 279 281 281 279 278 278 281 282 282 283 283 284 284 285 285 285 285 284 284 284 285 285 285 285 288 290 292 290 290 291 294 297 298 297 298 302 298 303 307 306 307 306 303 304 307 308 309 309 308 304 304 304 304 304 303
277 277 277 277 277 277 277 277 278 278 278 280 282 283 283 283 283 283 280 279 279 278 278 278 277 277 277 277 276 276 277 277 277 277 277 277 277 278 278 279 279 281 283 283 284 285 286 285 284 283 285 287 286 287 289 291 290 289 292 292 292 291 291 291 294 295 298 302 306 307 306 304 301 305 305 308 307 307 307 306 304 304 304 303 303
276 276 277 277 277 277 277 277 277 277 278 281 282 282 282 282 283 282 279 279 278 277 277 277 277 277 277 277 276 276 276 276 277 278 277 277 277 277 277 278 278 279 280 281 281 282 283 284 284 284 285 287 287 288 289 290 291 292 292 291 290 290 291 292 293 295 298 302 304 307 305 308 299 302 304 307 304 305 306 305 303 303 303 303 302
276 276 276 276 276 277 277 276 276 276 276 280 281 281 281 282 282 279 278 277 277 276 276 276 276 276 277 276 276 276 276 276 278 280 280 278 277 277 277 277 278 278 279 283 284 285 284 284 284 285 285 287 288 288 288 289 289 291 291 290 289 289 288 287 287 292 295 301 302 304 305 304 297 302 304 301 300 301 301 301 302 302 303 302 302
276 276 276 277 276 276 276 276 275 275 275 278 280 280 280 281 280 277 277 276 276 276 275 276 276 276 276 276 276 276 276 275 279 280 281 281 277 276 276 276 277 277 278 280 283 284 285 285 286 287 288 288 289 290 289 290 289 291 289 286 285 286 285 284 285 288 291 298 299 303 305 305 296 300 301 290 295 297 298 297 300 301 302 302 301
276 276 276 275 275 275 275 275 275 274 274 276 279 279 280 280 279 276 276 275 275 275 275 275 276 276 276 278 278 276 276 276 279 280 281 280 277 276 276 276 276 276 277 279 281 282 285 286 286 287 287 288 288 288 288 289 290 289 286 283 284 285 283 284 283 285 288 293 297 302 302 304 299 296 294 287 288 288 291 293 294 298 300 301 301
275 275 275 274 274 274 274 274 275 274 274 275 278 278 279 279 279 276 275 274 274 274 274 274 275 275 275 276 278 277 277 278 281 281 282 280 277 277 277 276 276 276 277 279 279 279 280 281 281 282 283 284 285 285 285 287 287 287 286 285 285 283 282 283 284 286 287 289 297 302 300 298 294 294 294 288 289 288 287 290 291 293 296 297 298
Wind_Speed
4 4 3 3 2 3 3 4 3 4 4 4 5 5 5 5 5 5 4 4 4 4 3 3 3 3 4 4 4 4 4 5 5 5 4 5 5 7 10 10 12 12 14 15 17 16 17 17 17 17 17 17 18 19 18 18 18 18 18 18 18 18 18 18 17 16 16 16 16 16 16 16 16 15 16 17 17 17 16 15 16 16 16 15 14
4 3 4 4 3 3 3 3 4 3 4 5 4 5 5 4 3 4 4 4 4 4 4 4 4 4 3 4 5 6 5 5 5 5 5 5 6 6 10 11 12 13 14 15 16 18 18 18 18 18 19 19 19 19 18 18 19 19 19 18 18 18 18 17 17 17 17 16 16 15 16 16 16 16 16 17 16 17 17 17 15 15 15 15 16
4 5 4 4 4 4 5 3 3 3 4 5 3 4 4 5 5 5 5 5 6 5 4 5 5 5 4 4 6 5 5 5 5 5 6 6 6 6 7 11 12 12 14 15 16 17 18 19 19 19 19 19 19 19 19 19 19 19 19 19 19 18 18 18 18 17 17 17 16 16 16 16 16 15 15 16 17 17 17 17 16 17 16 16 15
5 5 5 5 5 5 4 4 5 4 4 4 5 4 4 3 2 3 3 3 4 3 2 3 4 5 4 4 5 5 5 5 5 6 6 6 6 6 6 7 11 12 13 14 16 17 18 19 20 20 20 20 21 20 20 20 20 20 20 19 19 19 19 19 18 17 17 17 16 15 15 15 15 16 16 16 16 16 17 17 17 16 15 16 15
6 5 5 5 5 5 5 5 5 5 5 5 4 3 2 3 3 2 2 2 3 5 3 3 4 5 5 5 5 6 6 5 6 6 7 7 7 7 6 6 7 10 13 14 15 16 18 19 19 20 20 21 21 21 21 21 21 21 20 20 21 20 20 20 18 17 16 16 16 16 16 16 16 16 16 15 16 17 17 17 16 16 16 15 14
5 5 4 5 5 5 6 6 6 5 5 4 5 5 5 4 5 3 5 5 5 5 4 5 5 5 5 6 5 6 6 6 6 7 6 7 7 7 7 6 7 7 8 12 15 14 17 18 19 19 20 21 21 21 22 22 22 22 22 21 20 21 21 20 18 16 15 15 16 16 16 15 15 16 16 16 16 16 16 16 15 16 15 15 15
4 6 5 5 5 5 6 6 5 5 5 5 5 5 5 5 4 5 5 4 5 5 5 6 5 6 6 5 6 6 5 7 6 6 7 7 7 7 7 7 7 7 7 8 10 15 16 17 18 19 20 21 21 21 22 22 22 22 23 23 22 22 21 21 19 16 15 15 14 14 15 15 15 16 15 15 15 15 15 15 14 13 14 14 13
5 3 4 5 5 6 6 5 4 4 5 4 3 5 5 5 5 4 5 6 5 6 5 6 5 7 6 6 7 6 7 6 7 7 7 7 7 7 7 7 7 7 8 8 8 8 12 15 17 19 20 20 21 21 22 22 22 22 23 23 23 23 22 21 21 18 17 16 15 14 15 15 15 15 15 15 15 16 16 15 14 13 10 10 13
2 4 5 4 4 5 5 4 3 4 4 4 4 5 5 5 5 5 5 6 5 6 6 6 7 7 7 7 7 6 7 7 7 7 7 7 8 7 7 8 8 9 8 8 8 7 11 16 16 18 19 19 19 20 21 21 21 21 22 22 23 23 22 22 21 19 17 16 15 15 15 16 15 15 15 15 16 17 16 15 11 10 12 13 13
2 3 3 4 4 5 4 4 4 4 4 4 6 5 4 4 6 4 5 5 6 6 7 6 6 6 6 7 7 6 7 7 7 7 7 9 9 9 9 8 8 9 8 8 8 8 8 11 16 17 18 18 18 19 21 21 22 22 22 22 22 22 22 22 22 20 17 16 15 14 14 14 15 16 15 15 15 14 12 10 10 11 13 14 14
10 3 2 2 3 5 5 3 3 4 4 5 5 5 4 5 6 6 4 6 7 6 6 6 6 6 6 8 6 7 7 7 7 7 7 9 10 10 7 9 8 8 9 8 8 8 9 8 7 7 9 15 17 17 19 21 21 22 22 22 22 22 22 22 21 20 18 17 16 15 14 13 13 13 13 13 13 13 12 12 12 12 14 14 13
12 14 12 6 3 3 3 2 3 3 4 6 6 5 7 6 8 7 6 5 5 6 5 6 5 5 8 8 8 9 9 9 8 8 8 8 9 7 8 8 8 9 8 8 7 8 9 9 7 8 8 10 15 16 17 18 18 21 22 23 22 22 22 22 22 22 20 18 17 15 14 15 15 14 14 15 15 12 12 12 13 14 14 13 13
15 13 12 11 11 9 6 3 1 1 4 6 5 5 5 5 5 4 7 6 5 5 4 2 3 6 6 8 8 7 9 9 9 8 8 8 6 7 8 8 9 9 8 6 8 9 9 9 8 7 8 7 9 13 16 17 17 19 22 22 23 24 23 22 22 22 21 19 17 15 15 15 14 14 15 15 12 12 13 13 15 15 13 13 13
14 13 13 13 12 10 11 12 10 4 3 3 4 4 5 5 4 4 5 7 6 4 4 4 2 5 7 8 7 6 8 9 8 8 7 6 7 8 9 8 8 7 6 7 8 8 8 8 7 8 7 7 7 7 8 10 13 18 20 22 23 23 23 24 23 23 21 19 17 15 15 15 14 14 15 13 13 13 13 14 15 15 13 14 14
14 14 13 13 12 11 11 10 11 11 11 9 7 6 5 5 4 6 7 3 5 2 4 7 6 2 2 4 7 10 3 3 3 5 6 7 7 7 7 6 9 8 7 6 7 7 6 6 7 7 8 8 8 8 8 9 12 13 18 20 21 23 23 24 23 23 22 19 17 16 14 13 13 14 14 15 14 13 12 14 14 14 14 14 13
14 14 13 14 13 12 11 11 11 12 10 11 13 15 16 13 10 7 6 8 4 5 5 7 6 2 5 4 3 3 13 6 2 6 8 9 6 7 5 7 7 6 5 6 7 6 6 5 8 8 8 9 8 8 8 9 14 17 19 19 19 21 22 22 22 22 21 19 17 16 15 16 15 15 16 14 14 14 14 14 14 13 13 13 13
13 14 12 12 13 12 12 11 11 12 12 12 12 11 11 11 14 14 12 8 10 6 3 5 7 7 6 2 4 2 5 10 6 12 4 4 7 7 6 7 7 7 5 7 6 6 7 7 7 7 8 9 9 8 8 9 9 9 12 17 20 21 21 22 22 21 21 20 17 16 16 16 16 16 15 16 15 15 15 15 15 14 14 13 13
13 13 12 12 13 14 12 13 13 12 12 10 10 11 13 13 13 11 12 15 12 10 10 4 7 8 9 9 7 8 8 5 6 12 0 7 9 7 8 6 6 5 5 6 6 7 6 7 6 7 8 8 8 8 8 8 9 8 9 11 19 20 21 21 22 21 21 20 18 16 16 17 17 17 17 16 16 15 15 15 15 14 14 13 13
13 13 13 13 13 13 12 11 11 11 11 11 12 12 10 12 12 13 12 11 14 13 15 12 4 5 8 10 10 9 8 7 8 8 14 7 7 4 6 6 7 7 8 8 8 6 6 6 7 8 7 7 7 8 7 9 11 12 16 17 19 20 20 20 21 21 21 20 20 19 17 17 17 16 15 15 16 16 15 14 15 14 14 14 13
9 11 12 12 11 13 13 12 12 12 11 11 11 10 9 10 11 11 11 12 13 13 11 13 14 11 5 9 9 11 10 9 10 10 11 13 19 4 8 6 7 8 9 9 7 8 8 7 8 7 7 8 8 7 8 8 8 10 10 19 20 20 20 20 20 21 21 20 20 19 18 17 17 17 17 17 17 16 16 15 15 15 15 14 13
11 11 11 12 11 11 13 13 13 12 10 10 11 12 13 13 15 15 15 12 11 11 10 14 14 12 16 13 10 8 8 9 10 8 8 9 14 15 16 4 5 7 7 7 8 8 9 9 9 9 8 8 8 7 8 8 8 9 10 16 20 21 21 21 20 21 21 21 20 19 17 18 18 18 17 17 17 16 16 15 16 15 15 14 14
11 11 11 10 11 10 10 11 10 10 9 11 12 13 12 12 12 12 11 12 11 12 13 12 10 12 11 10 14 14 12 8 7 9 10 11 13 14 14 14 15 12 6 7 8 9 9 9 8 8 8 8 8 8 8 9 9 8 10 16 17 19 21 21 21 21 22 21 21 20 17 18 18 19 18 17 17 17 16 16 17 16 16 15 14
9 10 11 11 10 7 7 5 5 6 8 10 11 11 10 11 11 11 13 14 13 13 13 12 11 13 14 13 12 11 11 14 17 13 10 8 9 11 13 14 13 15 14 5 8 8 8 8 9 8 9 8 8 7 8 9 10 11 15 15 16 17 20 21 21 22 21 21 21 20 19 19 20 20 17 16 15 16 17 17 18 18 17 17 15
10 10 10 11 10 10 9 9 8 9 7 6 8 8 8 9 10 10 10 11 11 11 10 13 15 11 13 12 11 11 12 12 12 14 16 15 14 14 11 12 12 11 11 9 7 9 8 9 9 9 9 8 8 8 8 8 9 15 13 14 16 16 19 21 23 22 22 22 22 22 20 21 21 20 18 17 18 18 19 19 19 18 18 17 16
9 10 11 12 10 10 11 10 10 9 9 9 9 9 9 9 9 10 10 12 11 11 11 13 12 12 12 10 9 11 12 11 12 14 12 13 17 17 16 12 15 15 11 7 10 2 8 8 8 9 9 8 7 7 8 8 9 12 15 11 16 16 18 20 22 24 24 23 23 22 22 22 22 21 19 18 19 20 20 20 19 19 19 18 16
9 10 9 10 9 9 9 10 10 10 11 10 10 9 9 8 8 9 10 8 9 10 10 11 10 11 9 10 12 12 11 11 12 11 13 15 15 14 16 17 16 16 13 10 10 10 8 5 8 8 8 8 7 8 7 9 8 11 14 11 12 15 17 17 21 23 25 25 24 24 23 23 23 22 21 18 19 19 19 19 19 18 17 16 15
7 7 8 9 9 9 10 9 10 10 10 10 9 10 9 8 8 9 8 9 9 9 8 10 11 13 13 11 10 10 11 11 9 10 12 12 10 12 14 18 18 16 14 12 12 12 15 9 7 6 8 8 8 7 8 7 9 13 12 10 9 13 15 17 19 21 24 25 25 26 25 24 24 23 22 20 20 19 20 20 19 18 17 17 17
6 6 7 8 8 9 9 9 9 10 10 10 10 9 9 9 9 9 11 8 10 12 9 10 10 11 10 10 9 9 9 10 10 11 11 9 9 10 12 11 15 19 17 16 13 13 9 10 7 8 8 8 8 8 9 9 8 13 12 7 7 8 13 16 17 18 22 23 25 26 25 24 24 24 24 22 20 20 21 21 20 19 17 17 18
5 5 6 7 7 8 7 8 8 8 8 9 9 9 9 8 9 10 10 10 10 10 10 11 10 10 10 11 9 9 9 9 9 9 9 9 9 9 8 11 12 13 14 16 18 17 17 4 9 4 5 7 7 7 7 7 9 10 6 7 8 7 11 14 16 16 19 20 23 26 26 26 25 25 24 24 22 21 21 20 20 19 19 19 20
4 4 4 6 6 7 7 7 7 8 8 8 9 9 9 8 8 8 8 9 9 8 9 10 10 9 10 10 10 9 9 9 9 9 9 9 9 10 10 10 9 10 8 11 17 13 16 15 6 5 2 5 5 6 6 7 10 11 6 7 7 8 12 14 14 16 17 19 20 22 26 26 25 26 25 25 25 24 23 23 22 21 21 22 22
4 4 5 5 5 6 6 7 7 7 8 8 8 8 8 8 8 7 8 9 9 9 8 9 8 9 11 11 10 10 10 11 11 10 10 10 10 10 9 8 8 8 10 8 13 13 8 15 17 14 9 6 5 6 5 6 8 9 7 7 7 11 14 11 14 15 15 17 19 20 21 24 27 26 25 25 25 25 26 26 25 24 24 24 23
3 4 3 3 4 4 5 5 6 6 8 7 8 8 8 8 8 7 8 9 9 10 9 9 7 9 10 11 11 10 10 10 10 11 11 11 10 9 10 10 8 7 7 9 11 19 12 12 15 18 21 17 9 7 8 7 7 9 7 7 8 10 7 7 12 15 16 17 18 18 19 19 21 24 25 25 26 27 27 27 27 26 25 24 22
3 3 3 4 4 4 4 5 5 6 6 7 7 7 7 8 7 7 8 8 9 8 8 10 9 9 9 11 11 11 11 10 10 11 11 11 12 11 10 10 9 8 9 11 13 18 18 9 13 13 18 20 17 8 10 9 8 7 8 7 6 6 7 7 8 12 15 16 17 18 18 18 19 21 21 22 24 25 27 28 27 26 24 21 18
2 3 3 3 3 4 4 4 5 5 5 6 6 6 7 8 8 6 7 9 10 10 9 10 10 9 10 10 11 12 11 11 11 11 11 13 12 12 11 11 11 9 8 10 12 13 20 16 16 16 14 17 18 17 12 12 10 7 8 8 7 7 7 7 7 8 14 16 17 18 18 19 20 20 20 20 19 20 22 23 22 22 20 19 18
2 2 3 3 3 3 4 4 4 5 5 6 6 6 7 7 8 8 7 8 9 10 11 11 11 10 11 11 11 10 9 12 12 11 11 11 10 11 12 11 12 11 9 8 11 14 17 18 12 15 14 16 15 16 18 15 13 10 9 9 9 8 7 8 8 7 11 14 16 17 19 19 20 20 20 20 19 15 16 20 19 19 18 17 18
3 3 2 3 3 3 3 4 4 4 5 4 5 5 6 7 7 8 8 8 8 8 9 10 11 11 11 12 12 12 11 11 11 10 10 9 10 10 11 10 11 12 10 9 9 12 13 17 16 12 15 13 18 14 13 16 15 12 10 10 7 8 8 8 9 8 10 15 17 18 18 19 19 20 20 20 20 17 14 15 16 16 17 16 15
3 3 4 2 3 3 4 4 4 4 4 4 5 5 5 6 6 7 8 8 9 9 9 9 9 10 12 12 13 12 12 13 11 11 10 12 10 9 11 10 10 10 10 10 11 11 13 15 17 12 13 14 12 15 12 13 14 12 11 10 10 10 8 8 6 8 11 15 16 16 16 17 18 19 20 20 19 18 16 15 15 15 16 16 18
4 4 4 4 4 4 4 4 4 4 4 4 5 6 6 6 6 6 7 8 8 9 10 10 10 10 11 12 12 12 11 12 13 11 11 12 11 10 11 11 10 10 11 11 10 12 13 15 14 16 13 14 15 14 12 11 14 15 13 10 8 7 7 7 7 7 6 7 7 8 11 13 16 19 20 20 20 20 17 16 16 15 16 18 19
4 5 4 4 5 4 5 4 5 5 5 5 6 6 7 6 7 8 9 9 9 8 9 10 9 10 10 10 11 11 11 11 13 12 12 12 11 12 12 12 11 11 12 11 11 12 13 14 15 13 14 13 12 16 15 12 13 12 14 14 12 7 7 9 10 7 7 9 9 12 11 11 13 14 17 21 21 20 18 16 15 16 17 19 20
5 5 6 5 5 4 5 5 5 4 5 5 6 6 7 8 9 9 9 10 10 10 10 9 10 10 10 11 10 11 11 11 11 12 11 11 11 12 11 10 12 13 13 12 12 12 12 13 13 15 13 14 13 12 10 11 14 12 6 9 14 13 9 9 10 11 8 7 8 8 10 10 10 12 16 18 20 20 19 16 17 17 19 19 20
5 5 5 5 5 6 5 5 5 5 5 6 5 6 7 9 8 10 11 10 11 11 10 10 10 10 11 11 11 10 12 17 19 18 16 16 13 14 14 13 14 14 14 13 12 12 12 12 14 13 14 15 13 12 13 11 9 13 14 12 15 15 13 10 10 10 8 8 8 7 8 9 9 10 10 10 12 16 16 19 15 21 20 20 21
5 5 5 5 5 6 6 6 5 5 5 5 7 14 14 10 10 9 10 11 10 10 11 11 11 11 10 11 11 17 20 19 19 19 20 21 21 17 16 14 15 15 15 15 14 12 12 14 14 13 14 16 14 11 12 13 11 12 14 13 14 16 14 14 13 9 9 8 7 8 9 7 9 10 10 12 10 12 10 12 12 14 18 22 22
6 6 5 6 6 6 6 6 7 6 6 6 12 15 17 19 13 11 12 12 11 11 11 11 12 11 11 10 11 13 15 16 15 18 21 23 22 24 24 24 20 17 17 17 16 14 14 14 14 14 13 16 16 11 11 13 12 11 12 11 11 13 14 15 15 7 5 9 10 9 10 9 10 11 10 10 11 11 11 12 17 20 21 22 23
7 5 6 7 6 7 7 6 7 7 7 9 16 17 19 21 19 14 12 12 12 11 11 12 11 11 11 11 10 9 11 13 14 14 17 20 23 24 26 25 25 26 25 20 18 17 15 15 16 14 13 15 15 12 12 12 12 11 10 11 13 12 14 14 14 14 4 9 9 10 13 8 10 11 11 12 12 12 14 15 21 22 24 26 26
4 5 7 7 7 7 7 8 9 8 8 10 16 19 21 22 23 20 12 13 13 13 13 13 12 11 11 10 11 9 9 16 15 14 14 15 19 24 26 27 27 28 27 29 27 20 15 14 15 17 13 14 16 12 7 9 10 14 13 11 10 9 10 13 15 15 8 6 10 11 14 9 10 11 13 12 12 11 13 17 23 25 25 26 26
6 7 6 8 8 7 8 8 9 9 9 10 17 20 22 23 23 21 13 14 13 13 13 13 13 13 12 13 12 12 12 12 12 14 14 14 13 14 14 14 14 17 21 26 26 27 23 17 17 19 17 13 13 12 9 9 13 12 12 13 11 13 13 14 17 18 18 8 11 9 12 7 10 11 12 12 10 12 12 17 24 24 25 26 26
6 7 7 7 7 7 8 8 9 10 9 14 18 22 22 24 25 22 13 12 11 12 12 12 13 14 14 12 14 15 15 13 12 16 16 14 13 14 13 16 14 13 15 14 13 11 13 14 17 20 19 14 14 16 13 10 13 13 11 13 14 14 15 17 16 17 17 11 13 13 15 11 7 10 13 11 8 11 12 15 22 24 26 28 28
5 5 6 6 7 8 8 8 10 12 11 16 20 21 23 24 26 15 11 11 12 12 13 12 11 11 12 13 12 14 15 15 17 26 25 20 17 15 17 16 15 14 15 13 20 19 19 18 17 18 17 16 18 17 16 14 14 15 12 10 11 12 13 14 16 15 14 11 10 12 12 9 7 13 12 6 6 10 8 8 19 27 27 27 29
6 6 7 7 6 8 10 10 11 12 12 13 18 22 24 26 21 11 11 11 11 12 13 12 13 11 12 12 13 14 15 16 22 29 30 28 19 18 18 17 16 13 14 13 20 27 29 31 33 34 34 37 35 34 33 31 21 15 11 12 14 10 11 12 15 14 15 11 5 10 11 13 6 10 8 3 8 9 9 10 10 20 25 27 27
7 7 7 8 8 8 10 11 11 12 13 14 21 23 24 25 22 14 11 11 11 12 12 12 11 12 14 26 24 17 17 18 26 31 30 26 19 17 16 19 16 16 12 12 11 13 22 28 30 31 31 31 30 31 32 30 22 15 12 15 13 9 11 11 16 15 14 13 11 8 11 15 6 7 6 1 1 2 6 7 6 10 19 22 29
7 7 7 8 10 9 9 10 13 14 14 15 20 23 25 24 20 12 11 10 11 12 12 13 11 12 13 16 27 25 23 25 34 33 33 27 19 16 16 16 16 17 14 13 12 11 12 15 17 17 17 17 15 14 13 20 19 17 13 14 13 11 11 14 14 14 16 14 12 11 14 9 5 7 8 3 4 4 2 5 6 7 8 8 12
Wind_Direction
187 189 139 188 176 164 172 191 186 191 165 194 184 185 189 182 185 194 199 215 206 194 206 230 239 230 220 244 241 247 252 253 254 257 255 254 258 262 263 264 264 265 265 267 268 271 272 273 273 273 273 275 275 276 276 276 273 272 271 270 269 269 268 267 265 263 262 260 262 264 264 263 263 263 264 264 267 271 271 269 270 271 270 269 273
187 166 171 195 192 184 187 198 198 196 181 202 212 192 200 191 187 191 193 213 213 209 186 218 236 235 224 240 247 246 248 251 254 253 254 253 252 256 262 261 258 258 259 262 265 267 271 274 274 275 274 274 273 271 270 271 272 271 270 270 271 270 271 268 265 264 264 264 263 263 264 263 262 263 262 262 262 263 264 267 270 267 266 267 266
187 183 191 192 195 193 208 200 216 206 196 224 210 209 205 198 197 202 203 210 220 220 206 221 238 245 236 233 247 251 253 251 254 256 259 256 255 255 259 259 257 255 256 259 261 263 265 270 272 273 273 273 272 270 267 266 267 266 267 267 266 265 266 268 268 267 265 265 264 263 263 264 265 263 264 263 261 262 264 263 263 265 267 270 271
193 191 193 193 199 203 205 198 218 210 201 220 217 219 213 227 234 232 233 222 246 254 230 225 251 255 259 249 252 253 253 252 252 253 256 259 257 257 252 252 253 252 253 254 256 258 261 265 269 271 272 271 270 270 270 270 267 266 265 265 265 265 265 264 264 265 266 265 264 262 261 260 261 260 260 260 260 260 261 263 265 268 270 266 270
200 197 196 201 204 204 207 211 212 210 204 214 219 216 221 235 246 231 246 244 257 263 251 232 247 256 254 259 253 257 253 253 252 253 250 251 252 251 251 249 250 254 253 252 253 254 258 262 264 266 268 270 269 269 269 269 266 265 263 262 264 264 264 264 263 262 261 259 258 260 259 258 257 260 262 261 260 259 259 262 262 261 258 261 266
192 199 194 203 211 213 213 214 212 210 207 201 212 208 216 213 234 213 237 229 238 248 252 259 249 251 256 256 253 254 255 257 251 248 251 252 250 247 245 246 246 249 253 254 253 252 254 256 259 261 261 264 266 267 268 268 266 264 264 263 262 262 263 265 265 262 257 254 255 255 258 258 256 254 253 253 253 253 251 254 253 252 254 254 256
208 193 199 202 211 221 222 222 212 210 206 209 207 212 209 220 213 220 236 234 238 245 241 247 255 257 253 249 250 251 247 251 254 254 247 249 246 248 245 244 243 242 243 245 246 247 246 249 253 255 258 259 262 263 265 265 265 265 265 264 264 265 265 264 265 264 260 255 250 250 254 254 250 248 248 249 250 251 251 252 254 255 254 256 264
308 285 232 212 213 223 230 225 217 208 215 215 203 219 217 227 224 212 235 246 236 250 231 250 248 255 253 250 253 250 252 252 252 252 250 249 248 247 242 242 243 243 241 242 242 241 237 245 248 252 254 255 256 259 261 262 263 263 263 263 263 262 262 261 261 262 262 260 254 251 251 251 249 244 244 247 249 250 251 251 251 250 252 256 255
199 272 284 270 248 238 237 227 219 216 216 213 215 222 216 223 234 219 216 246 240 253 255 246 251 249 254 255 254 252 252 249 247 249 256 252 252 247 245 242 242 245 248 246 246 245 249 247 246 248 250 251 253 256 258 260 262 263 262 262 261 261 262 262 261 259 259 258 256 251 248 247 246 244 246 246 246 248 247 246 227 233 245 255 267
173 191 230 278 288 271 262 238 217 217 220 215 228 213 218 215 241 231 219 230 247 246 254 252 255 266 266 261 261 248 250 253 248 251 248 254 255 252 248 249 244 246 244 244 244 244 249 247 248 247 248 251 252 253 256 259 261 262 261 260 260 259 259 260 261 260 259 259 258 255 255 252 247 245 241 241 244 247 243 221 230 241 256 261 261
359 303 218 250 272 284 291 293 260 238 228 232 234 219 218 214 223 241 220 223 231 239 247 256 265 263 266 267 268 261 258 249 250 250 247 251 257 258 256 253 250 248 246 243 240 244 245 247 244 243 249 247 249 249 253 256 259 261 261 261 260 259 258 258 259 259 258 258 256 253 250 251 250 245 243 245 242 241 222 220 231 244 258 263 262
17 13 8 346 300 282 279 278 274 276 257 247 241 220 223 219 229 223 236 245 231 243 249 256 272 277 278 277 259 261 261 256 254 250 254 256 260 261 258 260 254 255 250 247 244 244 245 248 242 244 246 245 244 248 249 251 253 255 257 258 258 258 258 257 257 258 258 257 254 252 251 250 249 246 241 242 245 232 211 224 237 241 253 253 252
23 20 19 15 14 3 344 305 240 233 263 269 300 289 267 252 250 215 230 246 258 220 234 202 287 293 264 264 274 245 251 255 253 253 254 261 261 267 261 259 255 256 254 241 241 241 244 246 246 245 244 246 248 246 245 246 247 247 251 254 256 256 256 257 256 256 257 256 256 252 249 248 244 241 241 237 217 208 223 234 245 251 252 250 251
25 24 25 24 18 17 20 11 2 323 263 287 301 300 295 278 273 268 220 228 249 203 192 129 220 241 296 301 285 267 241 248 247 252 253 257 259 255 258 259 265 267 259 245 245 243 247 246 246 246 246 245 247 246 245 247 246 244 246 249 252 253 255 256 256 255 255 256 257 254 251 247 242 241 238 212 210 218 230 245 250 245 241 246 249
28 25 26 24 25 23 20 13 20 16 18 11 352 329 299 276 265 259 271 239 257 235 183 183 237 207 229 319 305 321 304 252 296 280 261 254 251 256 262 261 264 257 256 253 252 251 248 245 247 247 249 245 245 242 242 241 243 239 239 242 244 248 252 254 255 254 255 255 254 252 248 244 242 241 229 204 207 217 230 242 241 237 241 249 247
31 30 28 26 24 24 26 25 19 22 28 31 25 22 11 2 337 293 282 286 250 270 207 199 208 205 290 212 280 319 310 296 297 263 221 243 239 249 242 252 257 263 269 257 258 257 252 243 243 244 247 248 245 244 241 241 244 245 244 244 244 246 249 251 253 252 254 254 253 249 244 243 241 241 237 212 213 219 234 240 238 237 241 244 243
32 30 30 29 28 22 25 32 28 25 28 33 30 20 12 10 8 5 353 310 294 287 266 207 217 213 220 293 299 270 235 283 340 288 176 243 237 228 238 254 255 259 248 251 247 243 246 243 241 244 245 246 245 245 245 247 249 246 246 246 246 247 245 246 247 249 250 250 249 244 238 241 240 239 225 209 214 221 232 237 236 236 237 234 234
33 32 30 29 33 26 20 28 31 26 27 28 28 24 19 14 9 1 5 5 347 320 299 247 229 224 231 231 223 267 289 274 336 302 235 205 258 219 244 228 237 243 230 242 241 243 232 243 242 245 245 242 245 244 246 247 247 246 242 243 244 242 242 242 241 242 244 245 243 240 236 235 238 239 225 213 216 221 230 234 236 234 233 233 236
35 33 30 27 28 30 23 21 30 30 24 24 25 23 18 17 10 14 10 358 8 7 350 322 281 255 244 238 247 252 251 274 274 292 303 292 184 246 250 226 227 226 245 241 244 245 242 234 242 243 241 240 238 239 240 245 246 247 245 246 246 243 242 241 240 240 241 240 237 236 233 232 233 229 219 217 217 225 226 228 231 230 232 233 231
38 36 35 32 28 34 31 26 29 29 26 24 22 16 17 22 24 18 16 16 10 8 350 3 353 339 289 258 247 247 251 247 244 255 276 293 297 251 243 240 231 235 235 246 240 239 243 234 238 238 239 236 235 237 239 241 242 246 251 252 250 248 243 241 238 237 237 236 233 231 229 229 231 228 227 227 227 230 232 228 228 228 229 228 226
41 37 35 35 32 33 33 29 27 26 25 21 22 19 18 16 17 18 16 12 11 357 4 9 356 359 353 344 301 272 257 245 245 241 243 269 273 289 293 247 241 241 241 233 239 228 233 235 229 230 230 233 229 231 234 237 241 240 244 245 247 246 244 240 236 234 233 231 229 227 224 226 228 227 223 221 225 229 225 224 226 225 224 221 223
37 35 33 32 37 39 40 36 33 31 29 26 22 22 19 22 20 20 16 16 11 15 16 3 1 359 360 351 5 349 324 295 265 247 247 236 257 274 280 295 296 281 216 245 231 236 231 237 236 232 233 236 227 226 229 235 237 240 241 241 243 243 244 240 236 232 231 228 224 223 219 220 225 228 226 223 222 223 217 221 221 220 217 218 218
32 34 32 26 32 38 37 32 26 32 34 30 28 21 19 21 17 19 22 21 16 9 11 9 7 4 1 6 5 357 352 345 339 313 278 266 261 258 269 270 265 283 285 201 243 236 233 229 233 231 232 233 231 225 231 234 235 238 240 240 239 239 241 241 237 233 229 228 225 221 217 217 220 225 226 225 220 213 215 219 219 217 216 216 212
30 30 28 24 28 32 32 31 31 29 33 33 33 30 28 26 23 23 24 22 18 17 14 8 8 6 6 3 1 356 359 355 345 341 341 321 295 278 274 282 280 259 276 282 242 244 242 235 231 234 236 236 230 224 229 233 236 233 236 238 238 237 238 240 238 234 230 226 224 222 220 220 222 224 223 221 219 214 216 216 217 215 215 213 210
28 28 23 20 22 24 25 25 25 25 24 26 26 27 28 30 27 26 26 22 17 14 14 10 7 8 0 357 354 360 359 354 349 346 345 348 346 329 313 291 279 283 277 276 287 218 229 233 228 235 234 233 230 225 227 230 234 229 226 238 233 235 236 240 241 239 234 228 223 220 221 222 223 224 222 217 215 214 213 212 213 214 213 211 209
25 27 17 16 21 22 24 24 23 20 20 20 21 20 22 26 24 26 26 23 17 20 17 9 8 6 360 1 2 358 358 356 351 353 356 356 350 342 333 327 310 287 286 283 268 288 270 207 232 226 232 232 230 227 228 233 239 238 228 231 236 233 235 236 239 241 239 233 227 223 222 221 222 222 221 214 211 210 208 207 207 209 209 207 207
26 20 15 20 19 19 21 22 20 20 19 19 17 17 17 16 22 23 20 16 14 15 14 10 6 5 5 4 357 359 355 354 355 355 356 356 348 339 340 334 330 325 305 281 281 253 267 272 219 221 225 221 223 223 231 232 234 231 224 226 239 234 232 236 238 240 242 239 233 228 225 223 222 222 220 214 208 206 204 203 203 204 206 205 205
19 18 14 16 17 16 19 21 18 19 18 16 16 16 12 15 16 18 19 12 7 9 10 6 5 3 0 356 1 358 353 356 355 348 349 349 345 338 334 331 341 330 332 327 311 286 270 274 273 220 219 222 220 222 230 229 232 234 224 219 226 234 232 233 236 238 241 241 238 232 228 224 225 224 221 217 207 203 202 203 203 203 204 205 206
14 13 8 13 14 15 14 16 16 16 16 16 15 14 11 14 14 13 17 9 8 7 2 5 359 357 358 359 357 348 350 352 349 344 341 341 341 337 342 342 336 335 338 330 321 323 311 262 269 292 231 225 225 232 231 226 231 227 217 210 214 226 229 229 232 234 238 240 240 237 231 228 228 227 225 220 213 202 202 202 203 202 205 206 211
12 1 6 8 10 11 12 11 12 12 12 11 12 10 11 15 11 13 12 5 5 4 4 360 356 357 353 353 353 350 346 347 346 340 338 338 338 340 340 346 353 349 332 322 308 310 319 326 295 300 301 245 245 245 226 231 233 223 220 216 216 220 227 226 229 232 234 237 239 240 237 232 230 230 228 224 220 211 201 204 204 205 205 210 214
4 358 6 4 7 8 9 7 7 9 8 9 7 6 6 8 6 4 5 5 3 360 359 358 354 351 349 349 348 346 346 344 342 341 339 339 336 335 335 344 353 352 332 317 308 299 338 313 322 320 312 291 261 255 251 246 243 222 221 219 223 223 222 226 228 230 230 232 237 238 239 238 233 231 231 228 222 219 210 207 209 210 210 212 214
345 347 354 354 357 2 1 3 3 3 5 3 3 3 0 5 360 358 357 359 358 356 351 352 351 349 346 345 343 342 341 339 338 339 337 334 332 330 334 337 343 344 329 315 296 296 313 310 312 317 320 314 286 266 259 256 251 233 230 227 227 226 220 228 229 229 230 231 234 237 239 241 241 237 233 230 225 223 214 209 210 212 213 213 214
340 341 345 343 348 350 351 354 359 357 0 357 358 357 356 354 354 350 348 351 351 349 345 343 345 344 343 340 337 335 337 335 335 333 331 332 332 331 331 331 329 339 337 324 316 309 307 317 311 317 318 321 309 275 265 260 258 248 241 244 234 221 223 224 225 226 229 231 231 232 235 238 239 239 238 236 229 224 219 213 210 211 212 212 211
335 324 333 336 344 344 347 347 350 351 350 351 347 350 348 345 344 347 342 345 343 341 343 339 339 338 336 333 333 332 334 331 330 329 329 328 329 328 329 329 326 328 335 321 312 306 305 317 319 317 315 319 312 313 293 280 267 252 248 244 238 228 225 226 224 226 221 227 230 230 229 230 232 235 234 236 239 228 219 214 210 208 209 207 199
302 305 308 321 330 341 344 345 345 345 344 340 338 339 337 336 333 332 335 335 335 334 336 334 333 331 330 330 328 327 326 325 326 322 322 321 322 322 320 322 318 318 319 311 308 307 307 305 311 309 314 313 305 310 311 299 283 268 253 248 239 234 228 225 227 229 221 224 229 230 230 229 228 229 230 231 233 238 221 213 206 205 206 199 195
310 308 303 304 319 328 331 331 333 330 331 325 325 325 322 325 322 322 324 326 323 322 322 323 325 326 324 323 324 323 321 316 315 314 314 313 315 314 314 314 311 310 312 309 301 297 301 302 308 311 307 309 305 305 305 301 291 276 257 254 246 241 233 226 226 229 224 221 225 228 229 229 227 225 227 226 228 227 223 211 201 196 196 196 179
291 302 310 300 295 307 309 303 303 305 303 306 309 308 308 307 307 308 313 315 316 312 312 311 313 316 316 315 314 317 317 312 309 311 309 308 309 309 308 307 304 305 305 304 303 298 298 297 300 301 301 298 294 297 304 310 303 287 270 259 245 239 237 235 231 233 235 227 227 229 232 231 229 226 224 224 224 223 219 210 201 193 190 180 177
280 281 278 286 281 284 286 291 290 291 292 296 292 297 301 302 300 301 301 305 305 307 305 305 306 306 306 306 306 309 309 307 307 306 305 302 307 304 304 302 300 300 299 300 299 300 295 292 297 302 304 303 306 299 307 311 306 304 294 276 275 265 250 251 234 231 226 227 228 228 230 234 234 230 223 221 221 220 215 207 202 189 180 176 173
266 275 276 272 275 273 277 282 289 293 302 301 301 301 301 300 304 305 306 303 301 299 300 299 297 296 294 294 298 299 298 299 299 300 303 304 302 299 299 299 297 295 297 298 299 297 295 296 297 292 296 297 295 301 309 312 296 286 291 297 277 250 241 240 246 231 216 226 223 216 216 214 220 222 226 222 219 216 209 205 194 182 176 173 172
265 267 270 272 274 271 271 272 272 284 285 290 293 294 294 300 304 305 304 305 303 301 299 294 293 294 292 291 288 290 290 291 292 296 299 297 298 295 295 294 296 297 296 297 296 293 293 295 292 298 298 296 298 290 290 309 312 308 310 311 301 291 267 242 233 235 226 215 218 217 218 220 227 232 236 230 222 212 204 196 187 179 176 174 172
263 261 266 270 281 278 270 266 272 269 270 271 272 278 290 294 296 299 302 301 300 299 296 294 293 291 292 293 290 288 289 292 291 289 288 287 292 292 292 295 296 295 293 293 293 292 290 288 290 292 293 293 292 301 308 309 309 309 316 317 300 296 293 278 255 236 226 210 226 221 217 202 211 211 208 220 222 214 204 192 188 182 177 176 174
266 268 268 268 264 272 279 278 270 265 263 266 265 272 281 287 291 292 292 292 290 290 292 293 289 287 285 289 290 293 294 291 288 286 284 284 281 280 288 291 293 291 290 290 288 288 288 287 285 291 290 288 291 298 297 297 302 304 305 308 301 301 301 284 266 242 216 209 212 223 228 205 209 219 206 209 212 201 208 197 192 184 183 178 175
273 274 278 280 276 274 276 279 282 276 274 272 276 285 291 296 296 292 290 289 287 284 283 284 289 291 290 284 287 289 289 289 287 284 286 285 285 284 282 279 278 281 289 286 283 284 284 281 282 281 279 282 286 293 291 297 297 298 295 301 304 307 306 302 290 276 228 198 218 226 233 208 196 213 213 215 205 198 204 200 188 182 181 180 178
274 281 282 274 278 279 278 276 273 277 280 276 284 289 292 294 295 294 293 292 292 288 287 287 288 290 291 290 286 286 287 286 287 288 285 283 284 284 283 281 277 274 272 275 281 281 277 279 278 271 276 279 287 289 291 292 296 296 296 302 298 294 294 292 289 281 265 207 207 220 239 205 196 210 209 210 205 202 203 194 186 185 184 184 180
279 275 269 279 276 275 275 277 278 278 279 281 286 290 291 293 294 294 289 289 290 291 290 289 289 290 291 289 288 281 284 285 286 286 285 285 281 279 279 279 277 274 274 273 270 269 274 268 269 273 264 279 279 278 270 284 296 292 297 284 281 288 300 301 293 298 320 250 227 221 235 210 179 207 221 212 202 200 203 196 192 190 188 184 180
273 274 274 271 273 272 269 272 278 280 281 280 285 287 290 292 293 293 288 287 287 287 289 289 290 289 288 289 288 286 285 283 284 284 283 280 279 274 272 270 272 269 267 268 268 267 266 267 270 270 270 263 268 275 271 283 286 282 283 288 306 303 297 286 291 291 288 270 242 241 245 213 190 205 222 220 198 202 204 200 193 191 187 184 182
268 269 275 277 275 274 275 278 280 281 280 280 286 289 291 293 293 294 289 286 285 284 282 282 282 284 284 281 281 282 284 282 279 280 282 279 274 270 268 269 266 267 269 263 258 256 258 263 266 268 271 265 265 272 276 273 273 276 284 291 293 292 290 289 284 280 282 255 235 247 248 233 160 199 222 217 190 210 208 202 193 192 190 186 183
260 265 268 260 270 274 274 277 282 283 283 284 288 291 293 294 295 293 288 284 284 281 282 278 275 274 276 276 278 279 280 279 279 282 282 282 278 274 273 270 267 265 263 257 263 261 263 265 265 267 269 268 268 268 271 273 277 279 279 283 284 282 288 289 284 290 280 276 216 235 252 252 181 194 222 192 169 215 205 210 201 198 192 189 183
273 275 274 277 277 282 285 282 281 282 285 287 290 293 294 295 297 290 286 283 279 281 277 279 279 276 274 271 271 276 277 277 279 281 282 281 278 276 274 272 269 265 263 265 266 268 270 269 268 268 270 272 271 271 274 276 271 272 283 284 275 281 279 287 286 283 280 288 256 221 246 252 200 206 208 156 194 204 207 211 214 207 197 188 184
283 278 285 286 281 278 279 282 281 286 289 291 293 293 294 295 296 294 289 284 280 277 277 275 276 276 274 280 280 278 278 277 280 282 282 281 277 272 271 273 273 270 262 262 261 259 259 263 265 268 269 270 270 272 273 274 275 280 276 269 273 277 274 273 277 280 282 275 265 224 240 243 219 200 174 24 29 300 219 223 226 223 208 196 186
278 284 284 283 282 279 274 278 286 287 288 290 292 293 295 296 297 291 287 280 281 281 281 282 275 277 277 276 280 279 279 279 281 282 281 280 276 270 270 271 271 272 270 269 264 265 265 266 265 265 264 262 263 263 264 269 271 268 262 267 274 267 266 264 266 280 283 269 254 210 233 244 212 216 165 123 225 257 240 210 204 196 203 208 200